| time (UTC) | temp F | wind direction | speed MPH | gust MPH | rain 1hr in | rain 24hr in | rain mn in | humidity % | barometer mb |
| 20260903004503 | 64 | 270 | 0.0 | 0.0 | 0.01 | 0.41 | 0.39 | 99 | 1018.8 |
| 20260903003102 | 64 | 346 | 0.0 | 0.0 | 0.01 | 0.41 | 0.39 | 99 | 1018.2 |
| 20260903001505 | 64 | 346 | 0.0 | 0.0 | 0.01 | 0.41 | 0.39 | 99 | 1018.1 |
| 20260902234603 | 64 | 73 | 0.0 | 0.0 | 0.00 | 0.40 | 0.38 | 99 | 1018.5 |
| 20260902233003 | 64 | 73 | 0.0 | 0.0 | 0.00 | 0.40 | 0.38 | 99 | 1018.5 |
| 20260902231603 | 64 | 73 | 0.0 | 0.0 | 0.00 | 0.40 | 0.38 | 99 | 1018.3 |
| 20260902230002 | 64 | 73 | 0.0 | 0.0 | 0.00 | 0.40 | 0.38 | 99 | 1018.4 |
| 20260902224502 | 64 | 73 | 0.0 | 0.0 | 0.00 | 0.40 | 0.38 | 99 | 1018.6 |
| 20260902223103 | 64 | 73 | 0.0 | 0.0 | 0.00 | 0.40 | 0.38 | 98 | 1018.7 |
| 20260902221502 | 64 | 80 | 0.0 | 0.0 | 0.00 | 0.40 | 0.38 | 98 | 1019.0 |
| 20260902220104 | 64 | 80 | 0.0 | 0.0 | 0.00 | 0.40 | 0.38 | 99 | 1018.9 |
| 20260902214630 | 65 | 80 | 0.0 | 0.0 | 0.00 | 0.40 | 0.38 | 98 | 1018.9 |
| 20260902213001 | 65 | 80 | 0.0 | 0.0 | 0.00 | 0.40 | 0.38 | 98 | 1018.9 |
| 20260902211604 | 65 | 80 | 0.0 | 0.0 | 0.00 | 0.40 | 0.38 | 98 | 1018.9 |
| 20260902210135 | 65 | 80 | 0.0 | 0.0 | 0.00 | 0.40 | 0.38 | 98 | 1018.9 |
| 20260902204603 | 65 | 80 | 0.0 | 0.0 | 0.01 | 0.42 | 0.38 | 99 | 1018.8 |
| 20260902203004 | 65 | 80 | 0.0 | 0.0 | 0.03 | 0.42 | 0.38 | 99 | 1018.8 |
| 20260902201621 | 64 | 80 | 0.0 | 0.0 | 0.03 | 0.42 | 0.38 | 99 | 1018.8 |
| 20260902200002 | 65 | 80 | 0.0 | 0.0 | 0.03 | 0.42 | 0.38 | 99 | 1018.8 |
| 20260902194603 | 64 | 80 | 0.0 | 0.0 | 0.02 | 0.41 | 0.37 | 99 | 1018.6 |
| 20260902193002 | 64 | 80 | 0.0 | 0.0 | 0.00 | 0.39 | 0.35 | 99 | 1019.0 |
| 20260902191604 | 63 | 80 | 0.0 | 0.0 | 0.00 | 0.39 | 0.35 | 99 | 1019.1 |
| 20260902190007 | 63 | 80 | 0.0 | 0.0 | 0.00 | 0.39 | 0.35 | 99 | 1019.3 |
| 20260902184503 | 63 | 80 | 0.0 | 0.0 | 0.03 | 0.39 | 0.35 | 99 | 1019.7 |
| 20260902183102 | 63 | 80 | 0.0 | 0.0 | 0.06 | 0.39 | 0.35 | 99 | 1019.6 |
| 20260902181502 | 62 | 80 | 0.0 | 0.0 | 0.16 | 0.39 | 0.35 | 99 | 1019.7 |
| 20260902174605 | 62 | 98 | 0.0 | 0.0 | 0.26 | 0.36 | 0.32 | 99 | 1019.9 |
| 20260902173006 | 62 | 36 | 0.0 | 0.0 | 0.22 | 0.32 | 0.28 | 99 | 1020.5 |
| 20260902171503 | 62 | 36 | 0.0 | 0.0 | 0.13 | 0.23 | 0.19 | 99 | 1020.3 |
| 20260902170104 | 61 | 36 | 0.0 | 0.0 | 0.08 | 0.18 | 0.14 | 99 | 1020.8 |
| 20260902164502 | 61 | 36 | 0.0 | 0.0 | 0.00 | 0.10 | 0.06 | 99 | 1020.2 |
| 20260902163102 | 61 | 37 | 0.0 | 0.0 | 0.00 | 0.10 | 0.06 | 99 | 1020.4 |
| 20260902161505 | 61 | 40 | 0.0 | 0.0 | 0.00 | 0.10 | 0.06 | 99 | 1020.4 |
| 20260902154604 | 61 | 37 | 0.0 | 0.0 | 0.00 | 0.10 | 0.06 | 99 | 1020.1 |
| 20260902153002 | 62 | 265 | 0.0 | 0.0 | 0.00 | 0.10 | 0.06 | 99 | 1019.8 |
| 20260902151604 | 62 | 58 | 0.0 | 0.0 | 0.00 | 0.10 | 0.06 | 99 | 1019.9 |
| 20260902150005 | 61 | 58 | 0.0 | 0.0 | 0.00 | 0.10 | 0.06 | 99 | 1020.1 |
| 20260902144606 | 61 | 57 | 0.0 | 0.0 | 0.00 | 0.10 | 0.06 | 99 | 1020.4 |
| 20260902143002 | 61 | 63 | 0.0 | 0.0 | 0.01 | 0.10 | 0.06 | 99 | 1020.7 |
| 20260902141604 | 62 | 62 | 0.0 | 0.0 | 0.01 | 0.10 | 0.06 | 99 | 1020.5 |
| 20260902140002 | 62 | 76 | 0.0 | 0.0 | 0.01 | 0.20 | 0.06 | 99 | 1020.3 |
| 20260902134506 | 62 | 78 | 0.0 | 0.0 | 0.01 | 0.20 | 0.06 | 99 | 1020.1 |
| 20260902133002 | 62 | 68 | 0.0 | 0.0 | 0.00 | 0.19 | 0.05 | 99 | 1020.5 |
| 20260902131602 | 62 | 106 | 0.0 | 0.0 | 0.00 | 0.19 | 0.05 | 99 | 1020.1 |
| 20260902130002 | 62 | 348 | 0.0 | 0.0 | 0.00 | 0.24 | 0.05 | 99 | 1020.0 |
| 20260902124503 | 62 | 348 | 0.0 | 0.0 | 0.01 | 0.24 | 0.05 | 99 | 1019.8 |
| 20260902123103 | 62 | 341 | 0.0 | 0.0 | 0.01 | 0.24 | 0.05 | 99 | 1019.6 |
| 20260902121602 | 62 | 61 | 0.0 | 0.0 | 0.01 | 0.24 | 0.05 | 99 | 1019.5 |
| 20260902120003 | 61 | 49 | 0.0 | 0.0 | 0.01 | 0.27 | 0.05 | 99 | 1019.4 |
| 20260902114502 | 61 | 49 | 0.0 | 0.0 | 0.00 | 0.26 | 0.04 | 99 | 1019.5 |
| 20260902113110 | 61 | 40 | 0.0 | 0.0 | 0.00 | 0.26 | 0.04 | 99 | 1019.6 |
| 20260902111504 | 62 | 37 | 0.0 | 0.0 | 0.01 | 0.26 | 0.04 | 99 | 1019.7 |
| 20260902104603 | 62 | 39 | 0.0 | 0.0 | 0.02 | 0.27 | 0.04 | 99 | 1019.6 |
| 20260902103002 | 62 | 40 | 0.0 | 0.0 | 0.02 | 0.27 | 0.04 | 99 | 1019.5 |
| 20260902101602 | 62 | 40 | 0.0 | 0.0 | 0.01 | 0.26 | 0.03 | 99 | 1019.4 |
| 20260902100002 | 62 | 38 | 0.0 | 0.0 | 0.00 | 0.25 | 0.02 | 99 | 1019.1 |
| 20260902094602 | 62 | 30 | 0.0 | 0.0 | 0.00 | 0.25 | 0.02 | 99 | 1019.0 |
| 20260902093002 | 62 | 30 | 0.0 | 0.0 | 0.00 | 0.25 | 0.02 | 99 | 1018.9 |
| 20260902091605 | 62 | 30 | 0.0 | 0.0 | 0.00 | 0.25 | 0.02 | 99 | 1018.6 |
| 20260902090002 | 62 | 29 | 0.0 | 0.0 | 0.00 | 0.25 | 0.02 | 99 | 1018.4 |
| 20260902084506 | 62 | 29 | 0.0 | 0.0 | 0.00 | 0.25 | 0.02 | 99 | 1018.6 |
| 20260902083105 | 62 | 29 | 0.0 | 0.0 | 0.00 | 0.25 | 0.02 | 99 | 1018.5 |
| 20260902074502 | 62 | 28 | 0.0 | 0.0 | 0.00 | 0.25 | 0.02 | 99 | 1018.3 |
| 20260902073105 | 62 | 25 | 0.0 | 0.0 | 0.01 | 0.25 | 0.02 | 99 | 1018.4 |
| 20260902071603 | 62 | 67 | 0.0 | 0.0 | 0.01 | 0.25 | 0.02 | 98 | 1018.3 |
| 20260902070103 | 62 | 30 | 0.0 | 0.0 | 0.01 | 0.25 | 0.02 | 98 | 1018.4 |
| 20260902064604 | 62 | 28 | 0.0 | 0.0 | 0.01 | 0.26 | 0.02 | 99 | 1018.4 |
| 20260902063006 | 63 | 11 | 0.0 | 0.0 | 0.00 | 0.25 | 0.01 | 99 | 1018.5 |
| 20260902060126 | 63 | 5 | 0.0 | 0.0 | 0.01 | 0.25 | 0.01 | 98 | 1018.5 |
| 20260902054511 | 63 | 5 | 0.0 | 0.0 | 0.01 | 0.25 | 0.01 | 98 | 1018.4 |
| 20260902053106 | 63 | 5 | 0.0 | 0.0 | 0.01 | 0.25 | 0.01 | 98 | 1018.4 |
| 20260902051503 | 63 | 5 | 0.0 | 0.0 | 0.00 | 0.24 | 0.00 | 98 | 1018.4 |
| 20260902050104 | 63 | 24 | 0.0 | 0.0 | 0.00 | 0.24 | 0.00 | 98 | 1018.2 |
| 20260902044610 | 63 | 63 | 0.0 | 0.0 | 0.00 | 0.30 | 0.00 | 98 | 1018.0 |
| 20260902043002 | 63 | 49 | 0.0 | 0.0 | 0.00 | 0.30 | 0.00 | 98 | 1017.7 |
| 20260902041505 | 64 | 33 | 0.0 | 0.0 | 0.00 | 0.30 | 0.00 | 98 | 1017.6 |
| 20260902040107 | 64 | 331 | 0.0 | 0.0 | 0.00 | 0.30 | 0.00 | 98 | 1017.6 |
| 20260902034615 | 64 | 85 | 0.0 | 0.0 | 0.00 | 0.31 | 0.30 | 98 | 1017.6 |
| 20260902033006 | 64 | 36 | 0.0 | 0.0 | 0.00 | 0.31 | 0.30 | 98 | 1017.2 |
| 20260902031605 | 65 | 57 | 0.0 | 0.0 | 0.00 | 0.31 | 0.30 | 98 | 1016.9 |
| 20260902030106 | 66 | 88 | 0.0 | 0.0 | 0.00 | 0.31 | 0.30 | 98 | 1016.7 |
| 20260902024602 | 66 | 90 | 0.0 | 0.0 | 0.01 | 0.31 | 0.30 | 98 | 1016.6 |
| 20260902023005 | 67 | 112 | 0.0 | 0.0 | 0.01 | 0.31 | 0.30 | 98 | 1016.5 |
| 20260902021505 | 67 | 89 | 0.0 | 3.0 | 0.02 | 0.31 | 0.30 | 98 | 1016.4 |
| 20260902020001 | 67 | 15 | 0.0 | 0.0 | 0.02 | 0.32 | 0.30 | 98 | 1016.5 |
| 20260902014502 | 68 | 58 | 0.0 | 1.0 | 0.01 | 0.31 | 0.28 | 98 | 1016.5 |
| 20260902013102 | 68 | 51 | 0.0 | 1.0 | 0.01 | 0.31 | 0.28 | 98 | 1016.4 |
| 20260902011504 | 68 | 42 | 0.0 | 1.0 | 0.00 | 0.30 | 0.28 | 98 | 1016.5 |
| 20260902010104 | 68 | 50 | 0.0 | 0.0 | 0.00 | 0.30 | 0.28 | 98 | 1016.0 |